Theta_e
316 314 313 311 312 311 310 309 309 309 310 310 308 307 306 304 307 308 307 306 306 307 307 307 307 306 306 306 305 305 305 305 305 305 305 304 304 304 304 304 304 303 303
316 314 313 312 311 311 311 311 310 310 310 309 308 307 305 304 307 308 308 307 307 307 307 307 307 306 307 307 307 306 306 306 306 305 305 305 305 304 303 303 302 302 301
317 314 314 313 312 312 312 312 311 311 310 309 309 307 305 305 305 307 307 307 307 307 307 306 306 307 307 307 307 307 307 307 306 306 306 305 304 303 303 302 302 301 301
317 315 314 314 313 312 312 312 312 311 311 310 310 308 306 306 306 305 305 306 307 307 307 307 307 308 308 307 307 307 306 307 306 306 305 304 303 303 303 303 302 301 300
317 315 315 314 313 313 312 312 311 311 310 310 309 308 308 307 307 308 308 308 309 309 309 309 309 309 307 306 307 307 307 304 303 304 303 303 303 303 303 303 302 301 300
317 316 315 315 314 313 312 312 312 311 310 310 310 309 309 309 307 304 304 305 309 311 311 311 311 309 309 307 307 303 302 303 303 303 303 302 303 303 303 302 301 301 300
318 316 316 315 314 313 312 312 311 311 311 310 309 309 309 310 306 305 307 309 309 311 312 311 308 308 307 306 305 304 305 304 303 303 303 303 303 302 302 301 300 300 298
319 317 316 315 314 314 313 312 312 311 311 311 310 310 310 310 308 309 309 308 309 312 311 310 308 307 306 303 303 304 303 302 302 303 302 302 301 300 299 299 298 298 299
319 317 316 315 315 314 313 313 312 312 310 310 310 310 311 312 311 308 308 307 310 311 310 308 305 306 304 301 301 301 302 302 302 302 302 300 299 299 298 298 300 299 299
320 318 316 316 315 314 313 313 313 311 310 309 310 311 311 309 310 308 308 309 310 311 307 307 306 303 301 301 300 300 302 302 302 302 302 301 301 300 299 300 299 299 299
320 317 317 316 315 314 314 312 311 310 308 310 311 312 313 313 314 309 308 309 309 308 307 306 305 302 300 298 298 302 300 299 301 302 301 300 300 300 300 300 299 300 300
319 318 317 316 314 314 312 311 310 309 310 311 312 313 313 314 309 307 307 305 303 306 305 304 303 300 298 301 301 300 299 300 302 301 301 301 301 301 301 300 301 301 301
318 318 316 315 313 313 311 309 309 311 311 311 312 312 312 312 309 304 303 303 303 303 302 301 300 301 302 302 300 299 300 302 301 301 301 301 301 301 301 301 301 301 301
318 317 316 315 314 311 309 309 310 310 311 311 312 312 312 310 308 307 306 305 304 303 301 302 301 302 302 301 301 301 300 300 300 300 300 301 301 301 302 302 301 301 301
318 316 315 314 311 309 309 309 311 313 311 311 311 311 309 308 304 302 301 301 300 298 299 301 302 301 302 301 301 301 301 301 301 300 301 301 302 303 302 302 302 301 301
318 316 314 312 310 308 310 308 308 309 309 307 306 306 304 303 303 302 299 297 296 298 302 301 301 301 302 301 300 300 301 301 300 301 301 301 301 301 302 303 303 303 302
317 314 311 310 308 310 311 312 309 308 307 306 305 303 303 303 302 299 297 298 300 301 301 300 300 301 301 301 300 300 301 301 300 301 300 302 301 301 302 303 303 303 303
315 312 310 310 310 311 311 311 312 310 309 305 304 303 302 301 299 298 297 300 301 301 300 299 299 300 300 299 299 300 300 301 301 301 301 301 300 302 301 301 301 302 302
312 311 310 310 311 311 311 311 311 310 309 306 303 303 302 300 300 300 300 301 301 300 299 299 299 300 299 299 299 299 300 300 300 301 302 301 301 301 301 301 301 299 299
311 310 310 310 310 310 310 311 310 309 308 307 306 304 303 301 301 301 301 300 300 299 299 298 298 299 298 298 299 299 298 299 299 300 301 301 301 301 301 301 301 300 301
311 309 310 310 309 310 310 310 309 309 308 307 304 300 297 300 300 300 300 300 300 299 298 298 298 298 299 298 299 298 298 298 298 298 299 300 300 301 301 300 300 300 300
310 309 310 310 310 310 310 309 309 308 306 304 302 299 299 300 300 300 300 299 299 298 297 297 297 297 298 297 297 297 297 297 297 297 298 298 299 299 300 299 299 299 299
310 310 310 310 310 310 309 309 308 307 305 302 301 300 300 300 299 299 298 298 297 297 296 296 296 296 296 296 296 295 294 295 297 298 298 297 297 297 298 298 298 297 297
310 310 310 310 309 309 309 308 306 304 302 301 301 300 300 299 298 297 297 296 296 295 295 295 295 294 294 294 295 295 294 296 297 297 296 295 295 295 297 297 297 298 298
311 311 310 309 309 308 307 306 304 302 301 301 300 300 299 298 297 296 294 294 294 294 294 294 294 293 293 294 294 294 297 297 296 295 295 293 292 295 295 296 296 296 296
310 310 309 308 308 307 306 304 302 301 301 300 299 298 297 296 294 293 293 293 293 294 293 293 292 292 293 294 295 296 296 296 295 294 291 291 293 294 294 294 294 296 296
Wind_Speed
18 15 14 11 10 10 9 7 7 6 6 5 3 0 2 1 2 3 3 2 2 4 6 7 8 9 9 10 11 12 15 16 20 21 19 18 21 18 18 18 18 20 19
19 17 15 12 12 12 10 9 8 5 4 3 3 1 1 1 3 3 2 2 3 4 6 7 9 9 11 13 14 16 18 17 18 21 19 20 19 16 20 20 22 20 22
20 18 17 15 14 12 11 9 8 6 5 4 3 3 2 0 2 4 4 4 6 7 9 10 12 13 15 17 18 18 18 18 19 21 21 19 23 22 18 21 20 23 22
22 19 18 15 14 13 11 9 8 7 7 6 5 4 5 4 4 4 6 7 9 11 13 13 14 15 17 20 20 20 21 22 21 21 23 19 24 20 17 20 22 25 27
23 20 18 15 14 13 11 10 8 8 8 7 6 5 5 6 5 7 8 10 13 15 16 17 17 18 23 23 22 20 21 20 23 24 24 22 23 22 21 21 24 28 25
24 21 18 16 15 14 13 10 8 8 7 7 8 7 7 6 12 10 12 15 17 18 18 18 19 18 15 21 19 19 17 18 20 20 21 25 23 21 20 24 26 24 27
24 21 19 17 16 15 13 10 9 8 8 7 8 9 9 9 10 11 14 19 22 20 19 17 15 17 18 15 14 17 19 21 20 18 18 22 22 19 22 25 22 21 20
24 21 19 18 16 14 13 10 8 8 8 7 7 8 8 9 11 14 18 22 21 17 16 12 14 15 14 16 13 18 21 18 17 17 19 19 20 22 18 18 20 18 17
25 22 20 18 16 14 12 10 9 8 7 7 6 8 8 11 14 15 18 19 16 14 12 10 15 9 15 14 19 20 18 15 14 20 20 22 20 18 16 15 13 15 17
26 22 19 17 15 14 12 8 8 7 7 6 6 8 10 14 15 19 21 19 14 11 12 12 13 14 16 20 22 18 15 16 18 15 14 15 14 14 15 17 18 17 19
24 21 18 16 15 13 11 10 10 8 8 7 8 10 13 14 14 19 15 7 8 10 11 12 13 18 21 23 20 12 18 19 11 12 13 12 12 12 13 15 17 17 17
25 21 18 16 14 13 12 10 9 8 7 7 9 10 12 6 12 9 7 5 7 8 11 11 12 20 21 17 12 16 15 10 10 11 14 14 17 16 15 12 16 16 17
25 21 18 17 16 13 11 9 9 7 6 6 9 8 7 5 4 6 7 8 9 8 9 12 17 15 17 13 17 11 9 9 10 11 18 15 13 18 18 16 17 18 18
26 21 19 18 16 13 11 10 9 7 6 7 6 6 4 2 3 6 9 11 13 10 13 11 12 11 11 14 12 12 10 11 12 14 15 16 15 16 15 14 16 16 20
24 21 19 17 15 14 11 10 7 6 6 5 3 2 2 3 4 7 9 10 11 12 6 8 10 12 11 12 13 14 13 16 10 13 14 15 15 16 15 16 15 19 17
23 21 19 16 14 14 11 11 9 6 5 3 2 1 4 4 5 9 14 15 12 10 6 10 12 12 12 12 15 18 12 19 15 13 16 15 17 17 18 18 16 15 17
21 21 19 16 16 15 13 11 6 6 4 2 1 2 3 4 8 13 14 9 15 10 9 11 13 12 14 14 15 14 15 16 15 11 14 16 18 16 18 19 19 19 18
21 22 19 17 16 14 12 9 7 5 4 4 1 1 3 7 12 14 7 9 7 9 10 12 13 14 15 14 14 14 15 23 12 14 15 16 16 17 19 20 21 21 21
22 20 18 17 14 13 11 7 6 6 5 4 2 2 5 12 13 13 11 7 8 9 11 13 13 14 16 15 15 14 20 19 14 15 15 17 18 20 21 21 23 24 22
21 20 19 16 14 12 9 7 7 6 5 2 1 2 4 8 6 7 7 8 8 10 12 13 13 14 19 21 18 15 16 20 17 16 17 19 20 21 22 23 24 25 23
19 22 18 15 14 12 9 8 6 5 3 2 1 2 6 3 5 6 7 8 9 11 12 12 13 14 16 20 17 18 17 17 18 19 20 21 21 22 23 23 24 23 24
21 20 16 13 13 11 10 9 6 4 4 2 1 4 9 5 6 7 7 8 9 10 11 13 13 13 15 17 16 16 17 19 20 22 25 24 21 23 23 24 24 23 22
19 17 15 13 13 11 10 8 6 4 3 2 1 2 4 6 6 7 7 9 10 11 12 12 13 14 15 15 17 17 18 22 25 27 28 27 25 22 23 24 23 23 22
18 16 15 15 13 11 9 8 6 6 5 3 2 3 4 6 7 8 9 10 11 11 11 12 13 14 17 16 15 16 19 24 26 27 27 28 26 23 22 22 21 20 20
17 16 16 14 14 11 9 7 6 6 5 4 3 3 5 6 7 8 10 10 11 11 12 13 13 16 17 17 16 20 21 22 24 26 29 29 25 20 21 22 22 21 20
16 17 17 15 12 10 8 7 7 6 6 4 3 4 5 7 7 8 10 11 11 11 13 13 15 17 17 15 19 21 21 23 27 27 27 25 18 20 22 23 20 19 17
Wind_Direction
190 186 183 180 177 177 175 167 167 170 179 194 226 287 2 353 182 170 152 71 21 354 344 338 339 336 335 335 329 322 317 312 309 312 315 312 313 307 306 301 309 315 309
188 185 183 180 175 174 177 176 174 175 171 200 215 248 5 93 177 186 199 273 317 323 322 325 332 328 324 322 320 315 312 304 300 305 310 315 312 314 313 307 311 305 310
186 188 184 181 182 184 188 191 188 199 206 204 220 229 245 208 207 236 252 276 288 293 297 303 305 313 312 316 307 309 314 310 305 300 300 305 309 310 309 307 306 312 311
186 185 186 183 185 187 189 195 202 210 217 224 236 233 231 242 255 263 271 280 285 290 290 292 298 299 309 308 312 310 314 313 309 307 306 307 310 312 319 312 312 314 316
185 185 185 184 184 188 191 197 206 213 219 222 240 251 240 248 265 264 277 286 289 292 294 296 298 295 305 309 304 300 309 311 312 306 306 308 311 316 309 312 311 315 316
185 186 183 183 186 191 193 194 205 212 223 232 247 244 251 255 261 271 286 294 292 294 299 302 307 311 317 310 313 314 322 319 312 306 306 310 310 310 308 314 313 315 316
184 183 181 184 187 194 193 189 201 216 225 233 250 243 253 264 271 284 292 296 298 294 297 306 319 313 317 314 313 322 318 318 315 309 315 310 311 312 313 311 311 310 310
183 182 182 184 190 193 193 193 206 223 237 247 258 246 254 268 281 290 294 297 298 294 300 308 314 313 304 319 323 322 316 313 306 306 308 309 307 306 309 307 310 318 316
183 182 181 185 187 192 194 201 213 230 235 243 249 244 260 277 290 299 301 304 299 292 296 301 311 323 309 319 330 323 319 317 320 316 320 316 319 319 320 320 315 311 315
184 179 180 182 186 189 190 202 212 225 239 229 238 260 277 290 297 295 297 303 296 297 301 304 311 322 324 326 328 324 317 319 317 316 317 321 321 323 330 326 318 313 317
177 174 175 178 183 183 182 193 208 216 215 220 246 267 278 285 289 301 309 321 296 308 310 311 307 317 327 327 329 319 317 322 321 324 323 330 324 317 318 307 309 321 319
170 169 169 175 173 180 179 189 199 206 210 232 260 273 284 282 301 324 330 328 328 329 318 314 315 323 334 343 326 320 328 342 327 324 333 326 338 341 333 328 329 328 327
164 166 168 170 174 177 172 183 185 195 199 245 272 291 301 301 309 344 346 338 340 339 328 330 337 359 356 343 332 346 356 339 330 325 326 332 322 331 336 333 330 335 325
164 165 167 171 175 171 170 182 184 193 231 264 278 301 312 328 352 347 336 341 340 341 329 326 335 352 345 348 359 352 336 330 330 327 329 338 327 329 324 318 327 327 333
161 164 169 177 171 170 166 184 188 235 247 264 301 308 321 306 316 339 337 328 326 317 360 342 338 338 338 347 351 348 3 349 334 332 330 332 334 334 329 335 329 339 328
163 168 170 174 170 169 179 187 198 230 246 249 201 164 335 316 336 347 342 342 354 30 16 340 343 340 340 330 345 348 358 342 338 341 338 331 334 330 333 332 326 323 326
164 167 168 164 164 172 174 182 203 212 204 188 197 335 343 345 350 347 351 16 17 24 356 349 346 348 340 333 345 343 337 333 343 348 332 339 337 334 330 329 327 326 324
163 164 161 162 165 170 173 183 191 179 146 150 199 345 350 352 351 350 28 20 351 353 351 348 345 344 339 337 340 336 333 332 348 352 340 337 332 327 329 331 328 323 318
162 158 158 163 170 172 175 185 192 169 162 162 126 352 357 0 3 7 27 4 354 350 347 346 344 336 341 339 340 336 344 353 351 338 335 335 332 329 330 330 328 324 324
157 159 159 167 173 170 173 181 169 161 155 165 225 328 335 335 332 335 344 350 350 346 343 342 342 335 332 342 347 343 332 347 346 334 330 330 327 326 326 326 329 327 324
158 155 157 165 169 169 167 167 166 161 152 150 238 306 348 33 351 347 347 346 346 343 341 340 341 337 331 341 349 346 341 334 335 333 329 325 322 324 326 326 326 326 324
156 158 157 163 163 164 164 160 157 154 139 122 3 12 55 19 357 354 348 343 340 341 341 340 338 338 334 331 336 333 332 330 332 330 331 329 322 320 322 323 325 323 324
156 161 158 159 156 157 152 151 147 143 126 106 76 26 12 4 2 356 351 342 342 340 338 338 339 336 330 329 329 328 329 332 334 334 333 331 325 320 320 322 323 324 323
152 152 150 149 142 149 149 145 146 147 123 105 78 33 14 6 5 356 354 347 344 341 341 339 338 336 337 335 333 328 324 331 331 331 331 329 324 318 319 321 320 322 328
150 146 145 145 139 147 141 139 137 129 116 105 72 28 8 6 3 358 357 353 350 351 345 345 340 337 338 339 335 334 335 330 329 329 329 328 326 321 320 318 315 318 318
145 143 139 138 137 138 137 137 134 125 110 92 57 24 13 9 3 5 5 357 357 353 349 345 342 342 343 343 338 340 336 335 334 331 330 330 327 321 320 317 320 320 319